Hourly Data Report for October 21, 2013

All times are specified in Local Standard Time (LST). Add 1 hour to adjust for Daylight Saving Time where and when it is observed.

QIKIQTARJUAQ A
NUNAVUT

67°32'48.000" N
64°01'54.000" W
5.50 m
2400577
YVM

Download Data

Hourly Data (October 2013)
Hourly Data Report for October 21, 2013
Temp Definition
°C
Dew Point Temp Definition
°C
Rel Hum Definition
%
Wind Dir Definition
10's deg

Wind Spd Definition
km/h
Visibility Definition
km
Stn Press Definition
kPa
Hmdx Definition


Wind Chill Definition


Weather Definition


TIME
00:00 Legend Double Dagger -0.6 -1.6 93 18 5 16.1 101.85   -2 LegendNANA
01:00 Legend Double Dagger -1.0 -1.8 94 20 11 16.1 101.84   -5 LegendNANA
02:00 Legend Double Dagger -1.4 -2.5 92 LegendMM 4 16.1 101.90   -3 LegendNANA
03:00 Legend Double Dagger -1.2 -2.3 92 12 5 16.1 101.90   -3 LegendNANA
04:00 Legend Double Dagger -0.5 -1.5 93 6 5 16.1 101.92   -2 LegendNANA
05:00 Legend Double Dagger -0.2 -1.1 94 35 9 16.1 101.95   -3 LegendNANA
06:00 Legend Double Dagger -0.4 -1.3 94 5 5 16.1 101.99   -2 LegendNANA
07:00 Legend Double Dagger -0.1 -1.0 94 6 8 16.1 102.02   -3 LegendNANA
08:00 Legend Double Dagger 0.0 -0.8 94 6 8 16.1 102.05   -3 LegendNANA
09:00 Legend Double Dagger 0.6 -0.7 91 2 13 16.1 102.07     LegendNANA
10:00 Legend Double Dagger 0.2 -1.3 90 30 8 16.1 102.06     LegendNANA
11:00 Legend Double Dagger 0.4 -1.0 90   0 16.1 102.06     LegendNANA
12:00 Legend Double Dagger 0.4 -1.2 89 LegendMM 4 16.1 102.05     LegendNANA
13:00 Legend Double Dagger 0.4 -0.9 91 1 18 16.1 102.07     LegendNANA
14:00 Legend Double Dagger 0.3 -0.7 93 1 22 16.1 102.08     LegendNANA
15:00 Legend Double Dagger 0.0 -1.0 93 1 22 4.8 102.13   -6 LegendNANA
16:00 Legend Double Dagger 0.0 -0.9 94 1 22 6.4 102.15   -6 LegendNANA
17:00 Legend Double Dagger 0.0 -0.9 94 1 18 6.4 102.15   -5 LegendNANA
18:00 Legend Double Dagger -0.1 -0.7 96 1 15 2.4 102.13   -5 LegendNANA
19:00 Legend Double Dagger -0.1 -1.0 94 3 11 16.1 102.15   -4 LegendNANA
20:00 Legend Double Dagger -0.1 -1.2 92 3 17 12.9 102.14   -5 LegendNANA
21:00 Legend Double Dagger -0.5 -1.5 93 3 11 9.7 102.15   -4 LegendNANA
22:00 Legend Double Dagger -0.9 -2.6 88 6 9 16.1 102.11   -4 LegendNANA
23:00 Legend Double Dagger -0.9 -2.7 88 6 8 16.1 102.10   -4 LegendNANA

Notes on Data Quality.

Legend

  • E = Estimated
  • M = Missing
  • NA = Not Available
  • ‡ = Partner data that is not subject to review by the National Climate Archives
Date modified: